Regional Weather Roundup
Issued by NWS

Home | Current Version | Previous Version | Text Only | Print | Product List | Glossary On
Versions: 1 2 3 4 5 6 7 8 9 10 11 12 13 14 15 16 17 18 19 20 21 22 23 24 25 26 27 28 29 30 31 32 33 34 35 36 37 38 39 40 41 42 43 44 45 46 47 48 49 50
644
ASUS44 KOUN 300710
RWROK

WEATHER ROUNDUP FOR OKLAHOMA
NATIONAL WEATHER SERVICE NORMAN OK
200 AM CDT THU MAR 30 2017

NOTE: "FAIR" INDICATES FEW OR NO CLOUDS BELOW 12,000 FEET WITH NO
      SIGNIFICANT WEATHER AND/OR OBSTRUCTIONS TO VISIBILITY.

OKZ001>007-009>012-014-015-017-300800-
NORTHWEST OKLAHOMA AND THE PANHANDLE

CITY           SKY/WX    TMP DP  RH WIND       PRES   REMARKS
GAGE           CLOUDY    47  39  74 NW22G30   29.83S
GUYMON         CLEAR     41  38  89 W12       29.89S WCI  34
ENID/WOODRING  CLOUDY    45  41  87 NW15G22   29.72F
$$

OKZ016-021>023-033>039-044-045-300800-
SOUTHWEST OKLAHOMA

CITY           SKY/WX    TMP DP  RH WIND       PRES   REMARKS
LAWTON/REGL    CLOUDY    50  43  77 W9        29.83F
LAWTON/FT SILL CLOUDY    51  43  75 W13       29.81F
FREDERICK      CLEAR     49  42  77 W13       29.83F
CLINTON        PTCLDY    45  39  79 W15       29.84R
HOBART         CLEAR     46  41  82 W12       29.84F
ALTUS AFB      CLEAR     47  40  76 W12       29.86S
$$

OKZ018>020-024>031-300800-
CENTRAL OKLAHOMA

CITY           SKY/WX    TMP DP  RH WIND       PRES   REMARKS
OKLAHOMA CITY  MOCLDY    45  38  76 W13       29.75F
OKC/WILEY POST CLOUDY    46  39  76 NW16G28   29.76F
OKC/TINKER AFB MOCLDY    47  38  72 NW18      29.74F
STILLWATER     CLOUDY    46  39  76 W14G22    29.72S
GUTHRIE        CLOUDY    46  39  76 W21       29.75S
$$

OKZ008-013-054>072-300800-
NORTHEAST OKLAHOMA

CITY           SKY/WX    TMP DP  RH WIND       PRES   REMARKS
TULSA          CLOUDY    50  41  71 W18G25    29.69F
TULSA/JONES    CLOUDY    50  40  68 W10       29.71S
PONCA CITY     LGT RAIN  45  42  89 W10       29.68S FOG
BARTLESVILLE   CLOUDY    48  41  76 W9G17     29.68S
MUSKOGEE       MOCLDY    46  42  86 SW7       29.74F
$$

OKZ032-040>043-046>053-073>077-300800-
SOUTH CENTRAL/SOUTHEAST OKLAHOMA

CITY           SKY/WX    TMP DP  RH WIND       PRES   REMARKS
ARDMORE/DWNTWN CLEAR     50  41  71 NW5       29.81S
MCALESTER      PTCLDY    50  41  71 SW9       29.76F
$$





USA.gov is the U.S. government's official web portal to all federal, state and local government web resources and services.